www.pogodaiklimat.ru

Погода и климат >> Архив погоды >> Лаос >> Attapeu


ПОГОДА в Attapeu

  • Прогноз погоды в Attapeu
  • Монитор погоды в Attapeu
  • Климат города

АРХИВ ПОГОДЫ в Attapeu

Время (UTC), дата Ветер
(напр.,м/с)
 
Видим.   Явления Облачность Т
(С)
Тd
(С)
f
(%)
Тe
(С)
Тes
(С)
Комфортность P
(гПа)
Po
(гПа)
Тmin
(С)
Tmax
(С)
R
(мм)
S
(см)
00 21.03 Ю 1 8000 м дымка 8/5 600 м
[Cu med, cong Ac lent Ci sp]
+25.5 +23.0 86 +34 +35 очень
душно
1010.9 1000.1 +25.0
03 21.03 В 81 8000 м мгла {туман} 8/5 600 м
[Cu med, cong Ac lent Ci sp]
+29.5 +23.0 68 +39 +39 очень
душно
1011.1 1000.4
06 21.03 ЮЗ 54 8000 м мгла {туман} 8/5 600 м
[Cu med, cong Ac lent Ci sp]
+32.5 +22.7 56 +42 +50 опасность
перегрева
1008.0 997.5
09 21.03 Ю 1 10 км 5/4 600 м
[Cu med, cong Ci sp]
+32.0 +22.3 57 +41 +45 опасность
перегрева
1005.6 995.1
12 21.03 СВ 1 3000 м дымка {туман} 8/5 600 м
[Cu med, cong Ac lent Ci sp]
+29.2 +23.4 71 +40 +40 очень
душно
1007.4 996.8 +32.5
00 22.03 штиль 0 10 км 3/3 600 м
[Cu hum Ci fib]
+25.0 +22.8 88 +33 +35 очень
душно
1008.5 997.7 +25.0
03 22.03 Ю 1 10 км 8/5 600 м
[Cu med, cong Ac lent Ci sp]
+30.5 +24.0 68 +42 +49 опасность
перегрева
1010.3 999.6
06 22.03 Ю 1 10 км 3/3 600 м
[Cu hum Ci fib]
+33.5 +22.7 53 +43 +59 опасность
перегрева
1006.4 996.7
09 22.03 Ю 1 15 км 4/3 600 м
[Cu hum Ci fib]
+34.5 +23.8 54 +46 +50 опасность
перегрева
1005.4 994.8
12 22.03 Ю 1 3000 м дымка {туман} 5/4 600 м
[Cu med, cong Ci sp]
+32.0 +24.2 63 +44 +44 опасность
перегрева
1006.8 996.1 +34.5
15 22.03 Ю 1 3000 м дымка {туман} 5/4 600 м
[Cu med, cong Ci sp]
+32.0 +24.2 63 +44 +44 опасность
перегрева
1006.8 996.1 +34.5
00 23.03 штиль 0 10 км 8/5 600 м
[Cu med, cong Ac lent Ci sp]
+26.0 +23.8 88 +36 +37 очень
душно
1009.8 999.0 +25.7
03 23.03 Ю 1 10 км 4/3 600 м
[Cu hum Ci fib]
+30.5 +23.2 65 +41 +54 опасность
перегрева
1009.8 999.2
06 23.03 В 1 10 км 6/4 600 м
[Cu med, cong Ci sp]
+34.8 +23.7 53 +46 +59 опасность
перегрева
1006.9 996.5
09 23.03 З 2 10 км 6/4 600 м
[Cu med, cong Ci sp]
+35.5 +22.7 48 +45 +48 опасность
перегрева
1004.1 993.8
12 23.03 штиль 0 3000 м зарница {туман} 5/4 600 м
[Cb cap Ci sp]
+32.0 +22.7 58 +42 +42 опасность
перегрева
1005.6 995.1 +36.0
00 24.03 Ю 1 6000 м дымка 10/8 600 м
[Cu Sc Ac As]
+26.0 +23.8 88 +36 +36 очень
душно
1009.9 999.1 +25.8
03 24.03 Ю 1 8000 м мгла {туман} 8/5 600 м
[Cu med, cong Ac lent Ci sp]
+30.7 +23.2 64 +41 +48 опасность
перегрева
1010.6 1000.0
09 24.03 Ю 1 8000 м мгла {туман} 9/5 600 м
[Cu med, cong Ac lent Ci sp]
+30.9 +25.4 73 +45 +47 опасность
перегрева
1006.0 995.5
12 24.03 С 1 4000 м дымка {туман} 5/4 600 м
[Cu med, cong Ci sp]
+31.0 +23.0 62 +41 +41 опасность
перегрева
1007.7 997.2 +30.9
00 25.03 С 1 8000 м дымка 8/5 600 м
[Cu med, cong Ac lent Ci sp]
+25.0 +23.1 89 +33 +34 очень
душно
1011.0 1000.2 +25.0
03 25.03 С 1 8000 м мгла {туман} 5/4 600 м
[Cu med, cong Ci sp]
+30.0 +23.5 68 +41 +52 опасность
перегрева
1012.3 1001.7
06 25.03 СЗ 1 8000 м мгла {туман} 5/4 600 м
[Cu med, cong Ci sp]
+34.2 +23.6 54 +45 +59 опасность
перегрева
1008.3 997.9
09 25.03 З 1 8000 м мгла {туман} 8/5 600 м
[Cu med, cong Ac lent Ci sp]
+34.8 +22.4 49 +44 +46 опасность
перегрева
1005.4 995.1
12 25.03 В 1 4000 м зарница {туман} 10/8 600 м
[Cu Sc Ac As]
+31.8 +24.7 66 +45 +45 опасность
перегрева
1005.4 995.1 +35.0
00 26.03 В 1 8000 м дымка 8/5 600 м
[Cu med, cong Ac lent Ci sp]
+25.0 +22.1 84 +32 +33 очень
душно
1011.8 1001.0 +24.5
03 26.03 С 1 15 км 4/3 600 м
[Cu hum Ci fib]
+30.5 +22.5 62 +40 +53 опасность
солнечного
удара
1013.2 1002.2
06 26.03 В 1 15 км 8/5 600 м
[Cu med, cong Ac lent Ci sp]
+34.0 +22.4 51 +43 +51 опасность
перегрева
1010.3 999.6
09 26.03 С 1 10 км 8/5 600 м
[Cu med, cong Ac lent Ci sp]
+33.5 +20.9 48 +41 +43 опасность
перегрева
1008.2 997.5
12 26.03 С 2 3000 м дымка {туман} 8/5 600 м
[Cu med, cong Ac lent Ci sp]
+30.5 +20.8 56 +38 +38 очень
душно
1010.2 999.4 +34.5
00 27.03 штиль 0 18 км 8/5 600 м
[Cu med, cong Ac lent Ci sp]
+25.0 +18.7 68 +30 +31 душно 1012.9 1002.2 +24.5
03 27.03 СЗ 1 18 км 5/4 600 м
[Cu med, cong Ci sp]
+29.5 +20.1 57 +36 +47 очень
душно
1014.2 1003.5
06 27.03 СВ 2 15 км 9/6 600 м
[Cu Sc Ac As]
+33.8 +20.8 47 +41 +45 опасность
перегрева
1011.6 1001.1
09 27.03 С 2 15 км 10/8 600 м
[Cu Sc Ac As]
+32.8 +26.1 68 +49 +49 опасность
перегрева
1010.0 999.5

 

Местоположение метеостанции Attapeu (Лаос): широта 14.80 долгота 106.83 высота над уровнем моря 105 м.

В архиве по умолчанию представлена погода в Attapeu за последнюю неделю. Архивные данные за месяц целиком и за предыдущие месяцы, начиная с января 2011 года, Вы можете получить, выбрав интересующий диапазон дат из раскрывающегося списка и нажав кнопку "Ввод!".

Внимание! Время в таблицах - всемирное. Для получения местного времени необходимо прибавить поправку, которая в Attapeu равна 7 ч.

Смотрите также архив погоды в соседних городах и на ближайших метеорологических станциях:

Погода в Sekong (Лаос) (61 км)
Погода в Saravane (Лаос) (107 км)
Погода в Pakse (Лаос) (118 км)
Погода в Pleiku City (Вьетнам) (156 км)
Погода в Hue (Вьетнам) (198 км)
Погода в Quang Ngai (Вьетнам) (213 км)
Погода в Da Nang (Вьетнам) (216 км)
Погода в Ubon Ratchathani (Таиланд) (217 км)
Погода в Banmethuot (Вьетнам) (272 км)
Погода в Si Saket Agromet (Таиланд) (278 км)

Пояснения к столбцам:

Ветер - указаны скорость ветра в м/с - средняя за 10 мин, порывы в срок и между сроками (в фигурных скобках) и направление, откуда дует ветер: С - северный, СВ - северо-восточный, В - восточный, ЮВ - юго-восточный, Ю - южный, ЮЗ - юго-западный, З - западный, СЗ - северо-западный.
Видимость - горизонтальная дальность видимости в метрах или километрах. При видимости от 1 до 10 км при отсутствии осадков обычно наблюдается дымка, при ухудшении видимости до 1 км и менее - туман. В сухую погоду видимость может ухудшаться дымом, пылью или мглою.
Явления - указаны атмосферные явления, наблюдавшиеся в срок или в последний час перед сроком; фигурными скобками обозначены явления, наблюдавшиеся между сроками (за 1-3 часа до срока); квадратными скобками обозначены град или гололедные отложения с указанием их диаметра в мм.
Облачность - указаны через наклонную черту общая и нижняя облачность в баллах и высота нижней границы облаков в метрах; квадратными скобками обозначены формы облаков: Ci - перистые, Cs - перисто-слоистые, Cc - перисто-кучевые, Ac - высококучевые, As - высокослоистые, Sc - слоисто-кучевые, Ns - слоисто-дождевые, Cu - кучевые, Cb - кучево-дождевые. Подробнее классификацию облаков см. в Атласе облаков (PDF).
T - Температура воздуха - температура, измеренная на высоте 2 м над землей.
Td - Температура точки росы - температура, при понижении до которой содержащийся в воздухе водяной пар достигнет насыщения.
f - Относительная влажность воздуха - влажноcть воздуха, измеренная на высоте 2 м над землей.
Te - Эффективная температура - температура, которую ощущает одетый по сезону человек в тени. Характеристика душности погоды. При расчете учитывается влияние влажности воздуха и скорости ветра на теплоощущения человека.
Tes - Эффективная температура на солнце - температура, которую ощущает человек, с поправкой на солнечный нагрев. Характеристика знойности погоды. Зависит от высоты солнца над горизонтом, облачности и скорости ветра. Ночью, в пасмурную погоду, а также при ветре 12 м/с и более поправка равна нулю.
P - Атмосферное давление - приведенное к уровню моря атмосферное давление.
Po - Атмосферное давление - измеренное на уровне метеостанции атмосферное давление.
Tmin - Минимальная температура - минимум температуры воздуха на высоте 2 м над землей.
Tmax - Максимальная температура - максимум температуры воздуха на высоте 2 м над землей.
R - Количество осадков - Количество выпавших осадков, мм. При наведении курсора мыши на число - период времени, за который выпало указанное количество осадков.
S - Снежный покров - Высота снежного покрова, см. При наведении курсора мыши на число - состояние снежного покрова и степень покрытия местности в баллах.